Simultaneous Nadir Overpasses (SNOs) Predictions

Prediction of SNOs between GOES-17 and AQUA Satellite Orbit:

Table of predicted SNOs for the next 14.0 days since TLE Epoch: 9/19/2025
Index Date Time (GOES-17) GOES-17 Lat,Lon AQUA Lat,Lon Distance(km) Time Diff (sec)
1 09/21/2025 08:36:44 -0.21, -89.49 -0.95, -86.16 379.28 80
2 09/21/2025 20:58:36 0.20, -89.51 -0.10, -90.79 145.89 80
3 09/23/2025 20:35:17 0.21, -89.53 1.03, -85.74 431.38 80
4 09/24/2025 08:57:00 -0.19, -89.51 -0.01, -90.34 93.72 80
5 09/26/2025 08:33:40 -0.20, -89.52 -1.12, -85.28 483.43 80
6 09/26/2025 20:55:32 0.18, -89.54 0.09, -89.91 41.90 80
7 09/29/2025 08:51:15 -0.18, -89.55 -0.22, -89.45 11.57 80
8 10/01/2025 20:49:44 0.18, -89.58 0.27, -89.01 63.94 80
9 10/02/2025 09:11:27 -0.16, -89.58 0.73, -93.61 459.61 80
